GW4922 Weather Reports


time (UTC)temp
F
wind
direction
speed
knots
gust
knots
rain 1hr
in
rain 24hr
in
rain mn
in
humidity
%
barometer
mb
20260510120427 73 149 0.0 0.9 0.00 0.00 0.00 96 1012.2
20260510115922 73 164 0.0 0.9 0.00 0.00 0.00 96 1012.0
20260510115420 73 185 0.9 0.9 0.00 0.00 0.00 96 1012.0
20260510114915 73 159 0.9 1.7 0.00 0.00 0.00 96 1011.9
20260510114413 73 162 0.0 0.9 0.00 0.00 0.00 96 1011.9
20260510113908 73 127 0.9 0.9 0.00 0.00 0.00 96 1011.8
20260510113404 74 140 0.9 1.7 0.00 0.00 0.00 95 1011.8
20260510112901 74 131 1.7 2.6 0.00 0.00 0.00 96 1011.7
20260510112358 74 147 1.7 2.6 0.00 0.00 0.00 96 1011.6
20260510111854 74 162 2.6 2.6 0.00 0.00 0.00 96 1011.5
20260510111351 74 161 1.7 2.6 0.00 0.00 0.00 96 1011.5
20260510110846 74 165 0.9 1.7 0.00 0.00 0.00 96 1011.7
20260510110343 74 169 0.9 0.9 0.00 0.00 0.00 95 1011.4
20260510105839 74 170 0.0 0.0 0.00 0.00 0.00 95 1011.5
20260510105339 74 176 1.7 3.5 0.00 0.00 0.00 95 1011.4
20260510104835 74 174 1.7 1.7 0.00 0.00 0.00 95 1011.3
20260510104333 74 182 0.9 1.7 0.00 0.00 0.00 95 1011.3
20260510103829 74 167 0.9 2.6 0.00 0.00 0.00 95 1011.4
20260510103326 74 157 1.7 2.6 0.00 0.00 0.00 95 1011.2
20260510102821 75 164 1.7 2.6 0.00 0.00 0.00 95 1011.2
20260510102317 75 173 1.7 2.6 0.00 0.00 0.00 95 1011.4
20260510101815 75 190 1.7 2.6 0.00 0.00 0.00 95 1011.2
20260510101313 74 149 2.6 3.5 0.00 0.00 0.00 95 1011.5
20260510100808 74 167 1.7 2.6 0.00 0.00 0.00 95 1011.2
20260510100306 74 169 1.7 5.2 0.00 0.00 0.00 95 1011.2
20260510095802 74 143 3.5 5.2 0.00 0.00 0.00 95 1011.3
20260510095257 74 147 2.6 3.5 0.00 0.00 0.00 95 1011.3
20260510094756 74 171 1.7 2.6 0.00 0.00 0.00 95 1011.3
20260510094252 74 155 0.9 2.6 0.00 0.00 0.00 95 1011.4
20260510093748 74 152 3.5 5.2 0.00 0.00 0.00 95 1011.3
20260510093245 74 149 3.5 3.5 0.00 0.00 0.00 95 1011.3
20260510092741 74 152 2.6 5.2 0.00 0.00 0.00 95 1011.3
20260510092237 74 160 2.6 2.6 0.00 0.00 0.00 95 1011.2
20260510091733 74 157 1.7 2.6 0.00 0.00 0.00 95 1011.3
20260510091230 74 165 1.7 2.6 0.00 0.00 0.00 95 1011.0
20260510090726 74 145 2.6 3.5 0.00 0.00 0.00 95 1011.3
20260510090224 73 164 2.6 3.5 0.00 0.00 0.00 95 1011.1
20260510085719 73 157 1.7 3.5 0.00 0.00 0.00 95 1011.2
20260510085214 73 163 1.7 2.6 0.00 0.00 0.00 95 1011.1
20260510084710 73 160 1.7 2.6 0.00 0.00 0.00 95 1011.1
20260510084207 72 151 2.6 2.6 0.00 0.00 0.00 95 1011.2
20260510083704 72 156 1.7 1.7 0.00 0.00 0.00 94 1011.2
20260510083201 72 158 0.9 1.7 0.00 0.00 0.00 94 1011.1
20260510082656 72 158 0.9 0.9 0.00 0.00 0.00 94 1011.2
20260510082152 71 156 0.9 1.7 0.00 0.00 0.00 94 1011.1
20260510081647 71 156 1.7 1.7 0.00 0.00 0.00 94 1011.2
20260510081143 71 159 0.0 1.7 0.00 0.00 0.00 94 1011.0
20260510080642 71 165 0.9 1.7 0.00 0.00 0.00 93 1011.2
20260510080140 71 141 1.7 1.7 0.00 0.00 0.00 94 1011.0
20260510075637 72 157 0.0 0.0 0.00 0.00 0.00 93 1011.1
20260510075134 72 152 0.9 1.7 0.00 0.00 0.00 94 1011.1
20260510074631 72 155 0.0 1.7 0.00 0.00 0.00 94 1011.2
20260510074126 72 112 0.0 0.0 0.00 0.00 0.00 94 1011.0
20260510073623 72 148 0.0 0.9 0.00 0.00 0.00 94 1011.0
20260510073120 72 157 0.0 1.7 0.00 0.00 0.00 93 1011.0
20260510072616 72 92 1.7 2.6 0.00 0.00 0.00 93 1011.1
20260510072113 73 138 0.9 0.9 0.00 0.00 0.00 93 1011.0
20260510071608 73 139 1.7 3.5 0.00 0.00 0.00 93 1010.8
20260510071106 73 135 2.6 3.5 0.00 0.00 0.00 93 1010.8
20260510070603 73 159 2.6 6.1 0.00 0.00 0.00 93 1011.1
20260510070100 73 151 3.5 5.2 0.00 0.00 0.00 93 1010.8
20260510065557 73 145 4.3 7.8 0.00 0.00 0.00 93 1010.9
20260510065053 72 149 3.5 6.1 0.00 0.00 0.00 93 1010.9
20260510064549 72 147 4.3 7.0 0.00 0.00 0.00 93 1011.1
20260510064046 72 139 5.2 6.1 0.00 0.00 0.00 93 1011.1
20260510063543 72 153 3.5 6.1 0.00 0.00 0.00 92 1011.1
20260510063040 72 171 5.2 7.0 0.00 0.00 0.00 92 1011.3
20260510062536 71 163 2.6 3.5 0.00 0.00 0.00 92 1011.3
20260510062031 71 145 2.6 2.6 0.00 0.00 0.00 91 1011.5
20260510061528 71 152 1.7 2.6 0.00 0.00 0.00 91 1011.8
20260510061025 71 153 1.7 1.7 0.00 0.00 0.00 91 1011.6
20260510060521 72 136 1.7 2.6 0.00 0.00 0.00 90 1011.9
20260510060017 72 153 1.7 1.7 0.00 0.00 0.00 90 1011.8
20260510055513 72 130 1.7 1.7 0.00 0.00 0.00 90 1012.0
20260510055012 72 115 0.0 1.7 0.00 0.00 0.00 90 1012.1
20260510054507 72 64 1.7 2.6 0.00 0.00 0.00 90 1012.1
20260510054003 72 150 0.0 1.7 0.00 0.00 0.00 89 1012.1
20260510053457 72 162 0.0 0.0 0.00 0.00 0.00 89 1012.1
20260510052954 72 162 0.0 0.0 0.00 0.00 0.00 89 1012.1
20260510052450 72 162 0.0 0.0 0.00 0.00 0.00 88 1012.2
20260510051946 73 163 0.0 0.0 0.00 0.00 0.00 88 1012.2
20260510051442 73 154 0.0 0.0 0.00 0.00 0.00 88 1012.1
20260510050938 73 153 0.0 0.9 0.00 0.00 0.00 88 1012.1
20260510050436 73 147 0.9 1.7 0.00 0.00 0.00 87 1012.2
20260510045933 73 121 0.9 2.6 0.00 0.00 0.00 87 1011.8
20260510045430 74 152 0.9 2.6 0.00 0.00 0.00 87 1011.8
20260510044926 74 151 1.7 2.6 0.00 0.00 0.00 86 1011.7
20260510044424 74 126 1.7 3.5 0.00 0.00 0.00 86 1011.7
20260510043920 74 143 1.7 3.5 0.00 0.00 0.00 86 1011.9
20260510043416 74 141 0.9 3.5 0.00 0.00 0.00 85 1012.0
20260510042915 74 154 3.5 3.5 0.00 0.00 0.00 85 1012.0
20260510042410 75 147 1.7 2.6 0.00 0.00 0.00 84 1011.9
20260510041906 75 125 0.9 3.5 0.00 0.00 0.00 84 1012.0
20260510041403 75 97 0.9 1.7 0.00 0.00 0.00 84 1012.0
20260510040901 75 142 0.9 2.6 0.00 0.00 0.00 83 1011.9
20260510040358 75 125 0.9 5.2 0.00 0.00 0.00 83 1011.9
20260510035854 75 119 3.5 6.1 0.00 0.00 0.00 82 1011.9
20260510035349 75 89 1.7 3.5 0.00 0.00 0.00 81 1012.1
20260510034844 75 67 3.5 5.2 0.00 0.00 0.00 81 1012.0
20260510034343 76 120 1.7 3.5 0.00 0.00 0.00 80 1012.1
20260510033839 76 154 3.5 5.2 0.00 0.00 0.00 79 1011.8
20260510033336 76 147 3.5 7.0 0.00 0.00 0.00 80 1011.9
20260510032832 75 132 3.5 6.1 0.00 0.00 0.00 80 1011.7
20260510032329 75 54 2.6 3.5 0.00 0.00 0.00 81 1011.6
20260510031825 76 151 0.9 2.6 0.00 0.00 0.00 81 1011.4
20260510031321 76 110 0.0 1.7 0.00 0.00 0.00 81 1011.4
20260510030821 76 151 0.0 1.7 0.00 0.00 0.00 81 1011.3
20260510030317 76 160 0.9 2.6 0.00 0.00 0.00 81 1011.2
20260510025815 76 131 3.5 5.2 0.00 0.00 0.00 81 1011.1
20260510025312 77 65 2.6 3.5 0.00 0.00 0.00 81 1011.1
20260510024809 77 169 3.5 5.2 0.00 0.00 0.00 82 1010.7
20260510024306 77 94 4.3 6.1 0.00 0.00 0.00 82 1010.6
20260510023802 77 121 3.5 5.2 0.00 0.00 0.00 82 1010.4
20260510023258 77 150 3.5 5.2 0.00 0.00 0.00 82 1010.4
20260510022756 77 151 3.5 6.1 0.00 0.00 0.00 81 1010.3
20260510022255 77 147 2.6 3.5 0.00 0.00 0.00 80 1010.3
20260510021754 77 145 2.6 5.2 0.00 0.00 0.00 80 1010.4
20260510021253 78 151 4.3 7.8 0.00 0.00 0.00 79 1009.8
20260510020748 78 145 5.2 7.0 0.00 0.00 0.00 79 1009.8
20260510020248 78 133 4.3 6.1 0.00 0.00 0.00 80 1010.0
20260510015745 78 133 3.5 6.1 0.00 0.00 0.00 80 1009.8
20260510015241 78 137 4.3 6.1 0.00 0.00 0.00 80 1009.7
20260510014736 78 143 0.9 3.5 0.00 0.00 0.00 80 1009.8
20260510014234 78 143 1.7 3.5 0.00 0.00 0.00 79 1009.7
20260510013729 78 153 0.9 2.6 0.00 0.00 0.00 79 1009.5
20260510013225 78 150 1.7 3.5 0.00 0.00 0.00 79 1009.1
20260510012724 79 156 1.7 3.5 0.00 0.00 0.00 79 1009.1
20260510012220 79 151 2.6 3.5 0.00 0.00 0.00 79 1008.9
20260510011715 79 172 3.5 5.2 0.00 0.00 0.00 79 1009.1
20260510011211 79 158 2.6 6.1 0.00 0.00 0.00 79 1008.9
20260510010707 79 159 3.5 6.1 0.00 0.00 0.00 78 1009.0
20260510010204 80 145 2.6 5.2 0.00 0.00 0.00 77 1009.1
20260510005701 80 158 2.6 5.2 0.00 0.00 0.00 75 1009.0
20260510005157 81 149 2.6 5.2 0.00 0.00 0.00 74 1009.0
20260510004655 82 139 5.2 6.1 0.00 0.00 0.00 73 1009.1
20260510004153 82 132 3.5 5.2 0.00 0.00 0.00 72 1009.3
20260510003650 83 136 4.3 7.8 0.00 0.00 0.00 71 1009.1
20260510003146 84 92 1.7 2.6 0.00 0.00 0.00 71 1008.7
20260510002646 85 169 0.0 0.0 0.00 0.00 0.00 68 1008.6
20260510002143 87 179 0.0 0.0 0.00 0.00 0.00 66 1008.4
20260510001640 87 179 0.0 0.0 0.00 0.00 0.00 63 1008.4
20260510001138 87 179 0.0 0.0 0.00 0.00 0.00 63 1008.4
20260510000638 88 180 0.9 1.7 0.00 0.00 0.00 63 1008.5
20260510000137 88 184 2.6 2.6 0.00 0.00 0.00 62 1008.2
20260509235632 88 172 1.7 2.6 0.00 0.00 0.00 62 1008.2
20260509235129 88 182 2.6 2.6 0.00 0.00 0.00 61 1008.4
20260509234625 89 191 0.9 1.7 0.00 0.00 0.00 61 1008.2
20260509234123 89 182 1.7 1.7 0.00 0.00 0.00 59 1008.3
20260509233620 89 161 1.7 2.6 0.00 0.00 0.00 59 1008.2
20260509233118 89 188 1.7 3.5 0.00 0.00 0.00 59 1008.3
20260509232614 89 175 0.0 2.6 0.00 0.00 0.00 62 1008.2
20260509232111 89 162 2.6 3.5 0.00 0.00 0.00 60 1008.4
20260509231607 89 180 1.7 1.7 0.00 0.00 0.00 61 1008.4
20260509231105 89 166 1.7 2.6 0.00 0.00 0.00 60 1008.4
20260509230602 89 174 2.6 3.5 0.00 0.00 0.00 60 1008.3
20260509230059 89 162 2.6 3.5 0.00 0.00 0.00 59 1008.1
20260509225554 89 173 2.6 3.5 0.00 0.00 0.00 61 1008.2
20260509225050 89 174 1.7 3.5 0.00 0.00 0.00 59 1008.2
20260509224546 90 160 1.7 2.6 0.00 0.00 0.00 58 1008.3
20260509224043 90 158 0.9 1.7 0.00 0.00 0.00 56 1008.4
20260509223540 91 160 1.7 2.6 0.00 0.00 0.00 56 1008.2
20260509223038 90 162 1.7 2.6 0.00 0.00 0.00 57 1008.1
20260509222533 91 168 1.7 3.5 0.00 0.00 0.00 56 1008.0
20260509222029 92 186 0.9 1.7 0.00 0.00 0.00 54 1008.1
20260509221525 91 185 0.9 2.6 0.00 0.00 0.00 54 1008.1
20260509221021 91 194 0.0 0.0 0.00 0.00 0.00 55 1008.2
20260509220517 91 193 0.9 1.7 0.00 0.00 0.00 54 1008.2
20260509220014 91 190 0.0 1.7 0.00 0.00 0.00 55 1008.3
20260509215509 91 192 0.0 0.0 0.00 0.00 0.00 56 1008.0
20260509215007 90 206 0.9 1.7 0.00 0.00 0.00 58 1007.9
20260509214504 91 197 3.5 5.2 0.00 0.00 0.00 56 1008.2
20260509214001 91 187 0.0 0.0 0.00 0.00 0.00 57 1008.0
20260509213457 91 187 1.7 2.6 0.00 0.00 0.00 57 1008.2
20260509212954 92 193 1.7 2.6 0.00 0.00 0.00 59 1008.0
20260509212451 92 233 0.0 0.9 0.00 0.00 0.00 57 1007.9
20260509211947 92 206 0.0 0.9 0.00 0.00 0.00 57 1008.0
20260509211443 91 206 0.0 0.0 0.00 0.00 0.00 57 1007.8
20260509210940 90 208 0.0 2.6 0.00 0.00 0.00 58 1008.2
20260509210437 90 205 0.0 1.7 0.00 0.00 0.00 57 1008.3
20260509205932 91 197 4.3 6.1 0.00 0.00 0.00 59 1008.4
20260509205427 91 218 0.0 3.5 0.00 0.00 0.00 60 1008.3
20260509204923 90 216 0.0 1.7 0.00 0.00 0.00 61 1008.5
20260509204419 90 252 1.7 1.7 0.00 0.00 0.00 63 1008.4
20260509203916 89 217 2.6 2.6 0.00 0.00 0.00 63 1008.4
20260509203412 89 228 2.6 2.6 0.00 0.00 0.00 63 1008.4
20260509202910 89 216 1.7 1.7 0.00 0.00 0.00 64 1008.4
20260509202405 88 224 0.9 2.6 0.00 0.00 0.00 63 1008.5
20260509201901 89 281 2.6 3.5 0.00 0.00 0.00 63 1008.7
20260509201356 88 209 0.0 2.6 0.00 0.00 0.00 61 1008.9
20260509200854 89 189 0.9 5.2 0.00 0.00 0.00 60 1008.9
20260509200348 89 231 2.6 2.6 0.00 0.00 0.00 62 1008.9
20260509195845 88 208 0.9 1.7 0.00 0.00 0.00 64 1008.9
20260509195345 89 257 2.6 3.5 0.00 0.00 0.00 65 1008.9
20260509194845 88 308 2.6 2.6 0.00 0.00 0.00 66 1009.3
20260509194341 88 221 1.7 1.7 0.00 0.00 0.00 63 1009.0
20260509193838 88 268 3.5 7.0 0.00 0.00 0.00 65 1009.4
20260509193338 88 228 1.7 3.5 0.00 0.00 0.00 65 1009.3
20260509192834 87 222 0.0 2.6 0.00 0.00 0.00 65 1009.2
20260509192330 87 232 2.6 2.6 0.00 0.00 0.00 67 1009.2
20260509191826 87 239 1.7 2.6 0.00 0.00 0.00 66 1009.3
20260509191322 86 209 0.0 0.9 0.00 0.00 0.00 65 1009.2
20260509190818 86 239 3.5 5.2 0.00 0.00 0.00 67 1009.0
20260509190315 86 165 0.9 2.6 0.00 0.00 0.00 67 1008.8
20260509185812 86 150 3.5 7.0 0.00 0.00 0.00 65 1008.9
20260509185308 86 160 1.7 2.6 0.00 0.00 0.00 64 1009.1
20260509184806 86 208 0.9 2.6 0.00 0.00 0.00 65 1009.2
20260509184303 86 173 1.7 1.7 0.00 0.00 0.00 66 1009.1
20260509183800 86 330 0.9 2.6 0.00 0.00 0.00 66 1009.6
20260509183255 86 228 1.7 2.6 0.00 0.00 0.00 67 1009.6
20260509182750 86 225 0.0 0.9 0.00 0.00 0.00 67 1009.6
20260509182248 86 251 2.6 2.6 0.00 0.00 0.00 69 1009.8
20260509181745 86 226 1.7 3.5 0.00 0.00 0.00 68 1009.7
20260509181243 86 258 1.7 6.1 0.00 0.00 0.00 70 1009.9
20260509180740 85 294 1.7 2.6 0.00 0.00 0.00 71 1010.0
20260509180236 84 3 1.7 3.5 0.00 0.00 0.00 73 1009.9
20260509175732 84 351 3.5 6.1 0.00 0.00 0.00 73 1010.1
20260509175229 84 275 3.5 6.1 0.00 0.00 0.00 74 1010.1
20260509174725 84 245 2.6 5.2 0.00 0.00 0.00 76 1010.1
20260509174220 84 275 3.5 7.0 0.00 0.00 0.00 76 1010.4
20260509173717 84 258 2.6 3.5 0.00 0.00 0.00 77 1010.3
20260509173213 84 280 2.6 5.2 0.00 0.00 0.00 77 1010.4
20260509172708 84 316 4.3 5.2 0.00 0.00 0.00 77 1010.4
20260509172205 83 185 0.0 0.9 0.00 0.00 0.00 78 1010.4
20260509171701 83 188 0.0 1.7 0.00 0.00 0.00 80 1010.4
20260509171157 82 197 0.9 1.7 0.00 0.00 0.00 84 1010.8
20260509170654 81 213 2.6 2.6 0.00 0.00 0.00 86 1010.7
20260509170150 80 155 0.0 2.6 0.00 0.00 0.00 89 1010.6
20260509165648 80 182 1.7 2.6 0.00 0.00 0.00 92 1010.8
20260509165144 79 162 0.9 2.6 0.00 0.00 0.00 93 1010.7
20260509164640 79 180 2.6 3.5 0.00 0.00 0.00 94 1010.6
20260509164136 79 164 1.7 2.6 0.00 0.00 0.00 95 1010.7
20260509163634 78 185 0.9 3.5 0.00 0.00 0.00 96 1010.8
20260509163129 78 173 3.5 5.2 0.00 0.00 0.00 95 1010.6
20260509162627 78 123 3.5 6.1 0.00 0.00 0.00 96 1010.5
20260509162123 77 141 5.2 7.8 0.00 0.00 0.00 96 1010.4
20260509161619 78 149 4.3 7.8 0.00 0.00 0.00 95 1010.5
20260509161114 78 120 5.2 7.0 0.00 0.00 0.00 96 1010.6
20260509160611 77 125 5.2 9.6 0.00 0.00 0.00 96 1010.6
20260509160106 77 125 5.2 9.6 0.00 0.00 0.00 96 1010.3
20260509155602 77 145 7.8 8.7 0.00 0.00 0.00 96 1010.5
20260509155058 77 160 5.2 7.8 0.00 0.00 0.00 97 1010.7
20260509154554 77 146 4.3 6.1 0.00 0.00 0.00 97 1010.7
20260509154052 77 93 3.5 3.5 0.00 0.00 0.00 97 1010.4
20260509153549 77 153 2.6 7.8 0.00 0.00 0.00 97 1010.5
20260509153046 77 131 4.3 6.1 0.00 0.00 0.00 97 1010.3
20260509152542 76 100 5.2 7.8 0.00 0.00 0.00 97 1010.3
20260509152040 76 123 4.3 7.8 0.00 0.00 0.00 97 1010.3
20260509151535 76 139 4.3 6.1 0.00 0.00 0.00 97 1010.3
20260509151033 76 165 2.6 3.5 0.00 0.00 0.00 98 1010.3
20260509150530 76 134 3.5 5.2 0.00 0.00 0.00 97 1010.1
20260509150029 76 126 2.6 3.5 0.00 0.00 0.00 98 1010.2
20260509145524 76 151 5.2 6.1 0.00 0.00 0.00 98 1010.0
20260509145019 75 83 5.2 9.6 0.00 0.00 0.00 98 1009.9
20260509144517 75 111 5.2 7.0 0.00 0.00 0.00 98 1009.9
20260509144014 75 116 7.0 8.7 0.00 0.00 0.00 98 1010.2
20260509143510 75 116 2.6 7.0 0.00 0.00 0.00 98 1010.3
20260509143009 75 137 3.5 6.1 0.00 0.00 0.00 98 1010.7
20260509142504 75 134 3.5 3.5 0.00 0.00 0.00 98 1010.8
20260509141959 75 156 2.6 3.5 0.00 0.00 0.00 98 1011.2
20260509141456 75 138 2.6 3.5 0.00 0.00 0.00 98 1010.8
20260509140953 75 154 0.9 5.2 0.00 0.00 0.00 98 1010.5
20260509140449 75 66 2.6 3.5 0.00 0.00 0.00 98 1010.1
20260509135948 75 150 1.7 3.5 0.00 0.00 0.00 98 1010.2
20260509135445 75 135 0.0 0.0 0.00 0.00 0.00 98 1010.1
20260509134942 75 93 0.0 1.7 0.00 0.00 0.00 98 1010.3
20260509134439 75 343 2.6 3.5 0.00 0.00 0.00 98 1010.4
20260509133937 75 0 3.5 6.1 0.00 0.00 0.00 98 1010.4
20260509133433 75 35 4.3 6.1 0.00 0.00 0.00 98 1010.4
20260509132931 75 327 4.3 6.1 0.00 0.00 0.00 98 1010.7
20260509132429 75 18 2.6 5.2 0.00 0.00 0.00 98 1010.6
20260509131926 75 267 1.7 2.6 0.00 0.00 0.00 98 1010.7
20260509131423 75 230 0.9 0.9 0.00 0.00 0.00 98 1010.3
20260509130920 75 103 3.5 6.1 0.00 0.00 0.00 98 1009.8
20260509130415 75 121 1.7 1.7 0.00 0.00 0.00 98 1010.3
20260509125912 75 174 0.0 0.0 0.00 0.00 0.00 98 1010.9
20260509125409 74 162 0.9 1.7 0.00 0.00 0.00 98 1010.3
20260509124905 74 164 1.7 2.6 0.00 0.00 0.00 98 1010.8
20260509124402 74 155 1.7 2.6 0.00 0.00 0.00 98 1010.8
20260509123900 74 188 1.7 2.6 0.00 0.00 0.00 98 1011.0
20260509123357 74 181 0.9 1.7 0.00 0.00 0.00 98 1011.2
20260509122852 73 183 0.0 0.0 0.00 0.00 0.00 98 1011.3
20260509122349 73 167 0.0 0.0 0.00 0.00 0.00 98 1011.3
20260509121846 73 180 0.0 0.9 0.00 0.00 0.00 97 1011.6
20260509121343 73 192 0.9 1.7 0.00 0.00 0.00 98 1011.7
20260509120841 73 191 0.0 0.0 0.00 0.00 0.00 98 1011.3